Delta Virtual Airport Information Service

Malaga Costa Del Sol Airport

ICAO: LEMG Country: Spain
Latitude: 36.6749 Longitude: -4.4991
Latest Arrival : AEA1034 (LFPG-LEMG) Latest Departure : DAC7451 (LEMG-LEBL)


WX CaptureLIVE
Data provided by noaa.gov | Fetched at 06:45:29

METAR : LEMG 271130Z 29016KT 260V320 CAVOK 12/M00 Q1016 NOSIG

TAF : LEMG 271130Z 29016KT 260V320 CAVOK 12/M00 Q1016 NOSIG


Runway Data for LEMG
Data provided by openaviationdata.com

Runway ID Mag Var Hdg Length Elevation Surface ILS Freq ILS Id ILS Slope
12 -3 120° 10138 ft 52 ft Asphalt 110.55 IMG 3
13 -3 134° 10499 ft 52 ft Asphalt 109.5 GMM 3
31 -3 314° 10499 ft 52 ft Asphalt 109.9 GAA 3

Malaga Costa Del Sol Airport, Spain
Use only for reference purposes



Not for navigational purposes.